Weather History for Truth Or Consequences, NM

Change the Weather History Date:

Friday, May 11, 2012

  Actual Average Record
Temperature  
Mean Temperature 65 °F -  
Max Temperature 82 °F 82 °F 90 °F (2000)
Min Temperature 48 °F 54 °F 42 °F (2013)
Cooling Degree Days 0    
Month to date cooling degree days 34  
Year to date cooling degree days 121  
Growing Degree Days 15 (Base 50)    
Moisture  
Dew Point 44 °F    
Average Humidity 54    
Maximum Humidity 89    
Minimum Humidity 19    
Precipitation  
Precipitation T in - 0.28 in (1997)
Month to date precipitation 0.26  
Year to date precipitation 0.64  
Sea Level Pressure  
Sea Level Pressure 29.82 in    
Wind  
Wind Speed 7 mph (East)    
Max Wind Speed 31 mph    
Max Gust Speed 37 mph    
Visibility 10 miles    
Events      
T = Trace of Precipitation, MM = Missing Value Source: NWS Daily Summary

Daily Weather History Graph

Daily Weather History Graph

Search for Another Location

Airport:

Trip Planner

Search our weather history database for the weather conditions in past years. The results will help you decide how hot, cold, wet, or windy it might be!

Date:

Astronomy

May. 11, 2012 Rise Set
Actual Time 6:11 AM MDT 7:59 PM MDT
Civil Twilight 5:44 AM MDT 8:26 PM MDT
Nautical Twilight 5:12 AM MDT 8:59 PM MDT
Astronomical Twilight 4:37 AM MDT 9:34 PM MDT
Moon 12:43 AM MDT (5/11) 11:44 AM MDT (5/11)
Length of Visible Light 14h 41m
Length of Day
13h 47m
Waning Gibbous, 62% of the Moon is Illuminated
May 11
Waning Gibbous
May 12
Last Quarter
May 20
New
May 28
First Quarter
Jun 4
Full

Hourly Weather History & Observations

Time (MDT) Temp. Dew Point Humidity Pressure Visibility Wind Dir Wind Speed Gust Speed Precip Events Conditions
12:53 AM 53.1 °F 48.9 °F 86% 29.75 in 10.0 mi NNE 6.9 mph - N/A   Clear
1:53 AM 53.1 °F 50.0 °F 89% 29.76 in 10.0 mi ENE 3.5 mph - N/A   Clear
2:53 AM 53.1 °F 48.9 °F 86% 29.75 in 10.0 mi Calm Calm - N/A   Clear
3:53 AM 52.0 °F 48.0 °F 86% 29.75 in 10.0 mi ESE 3.5 mph - N/A   Clear
4:53 AM 50.0 °F 46.9 °F 89% 29.75 in 10.0 mi Calm Calm - N/A   Clear
5:53 AM 50.0 °F 46.9 °F 89% 29.77 in 10.0 mi Calm Calm - N/A   Clear
6:53 AM 51.1 °F 46.9 °F 86% 29.79 in 10.0 mi Calm Calm - N/A   Clear
7:53 AM 55.0 °F 50.0 °F 83% 29.81 in 10.0 mi Calm Calm - N/A   Clear
8:53 AM 57.9 °F 51.1 °F 78% 29.82 in 10.0 mi Calm Calm - N/A   Clear
9:53 AM 62.1 °F 50.0 °F 65% 29.83 in 10.0 mi ESE 3.5 mph - N/A   Clear
10:53 AM 68.0 °F 48.0 °F 49% 29.81 in 10.0 mi Variable 5.8 mph - N/A   Clear
11:53 AM 73.0 °F 41.0 °F 31% 29.81 in 10.0 mi East 5.8 mph - N/A   Clear
12:53 PM 77.0 °F 41.0 °F 28% 29.79 in 10.0 mi ESE 13.8 mph 19.6 mph N/A   Clear
1:53 PM 79.0 °F 39.9 °F 25% 29.80 in 10.0 mi East 10.4 mph - N/A   Clear
2:53 PM 78.1 °F 39.0 °F 25% 29.79 in 10.0 mi East 8.1 mph - N/A   Clear
3:53 PM 80.1 °F 39.9 °F 24% 29.77 in 10.0 mi SSE 8.1 mph - N/A   Scattered Clouds
4:53 PM 79.0 °F 33.1 °F 19% 29.77 in 10.0 mi SSW 12.7 mph 19.6 mph N/A   Clear
5:53 PM 77.0 °F 32.0 °F 19% 29.76 in 10.0 mi SSW 17.3 mph - N/A   Clear
6:53 PM 77.0 °F 33.1 °F 20% 29.78 in 10.0 mi NW 5.8 mph - N/A   Clear
7:28 PM 71.6 °F 42.8 °F 35% 30.00 in 10.0 mi ENE 25.3 mph 33.4 mph N/A   Mostly Cloudy
7:53 PM 66.9 °F 43.0 °F 42% 29.85 in 10.0 mi ENE 26.5 mph 36.8 mph N/A   Overcast
8:53 PM 66.9 °F 43.0 °F 42% 29.91 in 10.0 mi East 18.4 mph 24.2 mph N/A   Overcast
9:53 PM 64.9 °F 42.1 °F 43% 29.92 in 10.0 mi Variable 6.9 mph - 0.00 in   Scattered Clouds
10:53 PM 63.0 °F 44.1 °F 50% 29.96 in 10.0 mi North 5.8 mph - N/A   Clear
11:53 PM 61.0 °F 46.9 °F 60% 29.97 in 10.0 mi North 10.4 mph 20.7 mph N/A   Clear